owner,sensor,date,latitude,longitude,vertical_datum,sea_water_practical_salinity,qcFlag 
ENP,ioos.station.NOAA.NDBC:HCEF1:1,2017-11-01T00:00:00Z,25.2540,-80.4440,1.5,0.66,1111122 
ENP,ioos.station.NOAA.NDBC:HCEF1:1,2017-11-01T02:00:00Z,25.2540,-80.4440,1.5,0.69,1111122 
ENP,ioos.station.NOAA.NDBC:HCEF1:1,2017-11-01T03:00:00Z,25.2540,-80.4440,1.5,0.72,1111122 
ENP,ioos.station.NOAA.NDBC:HCEF1:1,2017-11-01T06:00:00Z,25.2540,-80.4440,1.5,1.16,1111122 
ENP,ioos.station.NOAA.NDBC:HCEF1:1,2017-11-01T07:00:00Z,25.2540,-80.4440,1.5,1.23,1111122 
ENP,ioos.station.NOAA.NDBC:HCEF1:1,2017-11-01T08:00:00Z,25.2540,-80.4440,1.5,1.16,1111122 
ENP,ioos.station.NOAA.NDBC:HCEF1:1,2017-11-01T11:00:00Z,25.2540,-80.4440,1.5,1.05,1111122 
ENP,ioos.station.NOAA.NDBC:HCEF1:1,2017-11-01T12:00:00Z,25.2540,-80.4440,1.5,1.04,1111122 
ENP,ioos.station.NOAA.NDBC:HCEF1:1,2017-11-01T13:00:00Z,25.2540,-80.4440,1.5,1.04,1111122 
ENP,ioos.station.NOAA.NDBC:HCEF1:1,2017-11-01T14:00:00Z,25.2540,-80.4440,1.5,1.05,1111122 
ENP,ioos.station.NOAA.NDBC:HCEF1:1,2017-11-01T15:00:00Z,25.2540,-80.4440,1.5,1.03,1111122 
ENP,ioos.station.NOAA.NDBC:HCEF1:1,2017-11-01T16:00:00Z,25.2540,-80.4440,1.5,0.98,1111122 
ENP,ioos.station.NOAA.NDBC:HCEF1:1,2017-11-01T17:00:00Z,25.2540,-80.4440,1.5,0.92,1111122 
ENP,ioos.station.NOAA.NDBC:HCEF1:1,2017-11-01T18:00:00Z,25.2540,-80.4440,1.5,0.92,1111122 
ENP,ioos.station.NOAA.NDBC:HCEF1:1,2017-11-01T19:00:00Z,25.2540,-80.4440,1.5,0.95,1111122 
ENP,ioos.station.NOAA.NDBC:HCEF1:1,2017-11-01T20:00:00Z,25.2540,-80.4440,1.5,0.97,1111122 
ENP,ioos.station.NOAA.NDBC:HCEF1:1,2017-11-01T21:00:00Z,25.2540,-80.4440,1.5,0.94,1111122 
ENP,ioos.station.NOAA.NDBC:HCEF1:1,2017-11-01T22:00:00Z,25.2540,-80.4440,1.5,0.96,1111122 
ENP,ioos.station.NOAA.NDBC:HCEF1:1,2017-11-01T23:00:00Z,25.2540,-80.4440,1.5,1.02,1111122 
ENP,ioos.station.NOAA.NDBC:HCEF1:1,2017-11-02T00:00:00Z,25.2540,-80.4440,1.5,1.24,1111122 
ENP,ioos.station.NOAA.NDBC:HCEF1:1,2017-11-02T02:00:00Z,25.2540,-80.4440,1.5,1.37,1111122 
ENP,ioos.station.NOAA.NDBC:HCEF1:1,2017-11-02T03:00:00Z,25.2540,-80.4440,1.5,1.46,1111122 
ENP,ioos.station.NOAA.NDBC:HCEF1:1,2017-11-02T05:00:00Z,25.2540,-80.4440,1.5,1.58,1111122 
ENP,ioos.station.NOAA.NDBC:HCEF1:1,2017-11-02T06:00:00Z,25.2540,-80.4440,1.5,1.58,1111122 
ENP,ioos.station.NOAA.NDBC:HCEF1:1,2017-11-02T07:00:00Z,25.2540,-80.4440,1.5,1.41,1111122 
ENP,ioos.station.NOAA.NDBC:HCEF1:1,2017-11-02T08:00:00Z,25.2540,-80.4440,1.5,1.3,1111122 
ENP,ioos.station.NOAA.NDBC:HCEF1:1,2017-11-02T10:00:00Z,25.2540,-80.4440,1.5,1.48,1111122 
ENP,ioos.station.NOAA.NDBC:HCEF1:1,2017-11-02T11:00:00Z,25.2540,-80.4440,1.5,1.52,1111122 
ENP,ioos.station.NOAA.NDBC:HCEF1:1,2017-11-02T12:00:00Z,25.2540,-80.4440,1.5,1.57,1111122 
ENP,ioos.station.NOAA.NDBC:HCEF1:1,2017-11-02T13:00:00Z,25.2540,-80.4440,1.5,1.64,1111122 
ENP,ioos.station.NOAA.NDBC:HCEF1:1,2017-11-02T14:00:00Z,25.2540,-80.4440,1.5,1.61,1111122 
ENP,ioos.station.NOAA.NDBC:HCEF1:1,2017-11-02T15:00:00Z,25.2540,-80.4440,1.5,1.53,1111122 
ENP,ioos.station.NOAA.NDBC:HCEF1:1,2017-11-02T16:00:00Z,25.2540,-80.4440,1.5,1.55,1111122 
ENP,ioos.station.NOAA.NDBC:HCEF1:1,2017-11-02T17:00:00Z,25.2540,-80.4440,1.5,1.56,1111122 
ENP,ioos.station.NOAA.NDBC:HCEF1:1,2017-11-02T18:00:00Z,25.2540,-80.4440,1.5,1.6,1111122 
ENP,ioos.station.NOAA.NDBC:HCEF1:1,2017-11-02T19:00:00Z,25.2540,-80.4440,1.5,1.63,1111122 
ENP,ioos.station.NOAA.NDBC:HCEF1:1,2017-11-02T20:00:00Z,25.2540,-80.4440,1.5,1.65,1111122 
ENP,ioos.station.NOAA.NDBC:HCEF1:1,2017-11-02T21:00:00Z,25.2540,-80.4440,1.5,1.71,1111122 
ENP,ioos.station.NOAA.NDBC:HCEF1:1,2017-11-02T22:00:00Z,25.2540,-80.4440,1.5,1.78,1111122 
ENP,ioos.station.NOAA.NDBC:HCEF1:1,2017-11-02T23:00:00Z,25.2540,-80.4440,1.5,1.86,1111122 
ENP,ioos.station.NOAA.NDBC:HCEF1:1,2017-11-03T00:00:00Z,25.2540,-80.4440,1.5,1.94,1111122 
ENP,ioos.station.NOAA.NDBC:HCEF1:1,2017-11-03T03:00:00Z,25.2540,-80.4440,1.5,2.09,1111122 
ENP,ioos.station.NOAA.NDBC:HCEF1:1,2017-11-03T05:00:00Z,25.2540,-80.4440,1.5,2.19,1111122 
ENP,ioos.station.NOAA.NDBC:HCEF1:1,2017-11-03T06:00:00Z,25.2540,-80.4440,1.5,2.37,1111122 
ENP,ioos.station.NOAA.NDBC:HCEF1:1,2017-11-03T07:00:00Z,25.2540,-80.4440,1.5,2.56,1111122 
ENP,ioos.station.NOAA.NDBC:HCEF1:1,2017-11-03T08:00:00Z,25.2540,-80.4440,1.5,2.67,1111122 
ENP,ioos.station.NOAA.NDBC:HCEF1:1,2017-11-03T10:00:00Z,25.2540,-80.4440,1.5,2.44,1111122 
ENP,ioos.station.NOAA.NDBC:HCEF1:1,2017-11-03T11:00:00Z,25.2540,-80.4440,1.5,2.46,1111122 
ENP,ioos.station.NOAA.NDBC:HCEF1:1,2017-11-03T12:00:00Z,25.2540,-80.4440,1.5,2.4,1111122 
ENP,ioos.station.NOAA.NDBC:HCEF1:1,2017-11-03T13:00:00Z,25.2540,-80.4440,1.5,2.44,1111122 
ENP,ioos.station.NOAA.NDBC:HCEF1:1,2017-11-03T14:00:00Z,25.2540,-80.4440,1.5,2.26,1111122 
ENP,ioos.station.NOAA.NDBC:HCEF1:1,2017-11-03T15:00:00Z,25.2540,-80.4440,1.5,2.03,1111122 
ENP,ioos.station.NOAA.NDBC:HCEF1:1,2017-11-03T16:00:00Z,25.2540,-80.4440,1.5,1.98,1111122 
ENP,ioos.station.NOAA.NDBC:HCEF1:1,2017-11-03T17:00:00Z,25.2540,-80.4440,1.5,2.01,1111122 
ENP,ioos.station.NOAA.NDBC:HCEF1:1,2017-11-03T18:00:00Z,25.2540,-80.4440,1.5,2.04,1111122 
ENP,ioos.station.NOAA.NDBC:HCEF1:1,2017-11-03T19:00:00Z,25.2540,-80.4440,1.5,2.05,1111122 
ENP,ioos.station.NOAA.NDBC:HCEF1:1,2017-11-03T20:00:00Z,25.2540,-80.4440,1.5,2.11,1111122 
ENP,ioos.station.NOAA.NDBC:HCEF1:1,2017-11-03T21:00:00Z,25.2540,-80.4440,1.5,2.14,1111122 
ENP,ioos.station.NOAA.NDBC:HCEF1:1,2017-11-03T22:00:00Z,25.2540,-80.4440,1.5,2.17,1111122 
ENP,ioos.station.NOAA.NDBC:HCEF1:1,2017-11-03T23:00:00Z,25.2540,-80.4440,1.5,2.24,1111122 
ENP,ioos.station.NOAA.NDBC:HCEF1:1,2017-11-04T00:00:00Z,25.2540,-80.4440,1.5,2.26,1111122 
ENP,ioos.station.NOAA.NDBC:HCEF1:1,2017-11-04T03:00:00Z,25.2540,-80.4440,1.5,2.37,1111122 
ENP,ioos.station.NOAA.NDBC:HCEF1:1,2017-11-04T06:00:00Z,25.2540,-80.4440,1.5,3.18,1111122 
ENP,ioos.station.NOAA.NDBC:HCEF1:1,2017-11-04T07:00:00Z,25.2540,-80.4440,1.5,3.11,1111122 
ENP,ioos.station.NOAA.NDBC:HCEF1:1,2017-11-04T08:00:00Z,25.2540,-80.4440,1.5,2.7,1111122 
ENP,ioos.station.NOAA.NDBC:HCEF1:1,2017-11-04T10:00:00Z,25.2540,-80.4440,1.5,2.44,1111122 
ENP,ioos.station.NOAA.NDBC:HCEF1:1,2017-11-04T11:00:00Z,25.2540,-80.4440,1.5,2.47,1111122 
ENP,ioos.station.NOAA.NDBC:HCEF1:1,2017-11-04T12:00:00Z,25.2540,-80.4440,1.5,2.48,1111122 
ENP,ioos.station.NOAA.NDBC:HCEF1:1,2017-11-04T13:00:00Z,25.2540,-80.4440,1.5,2.49,1111122 
ENP,ioos.station.NOAA.NDBC:HCEF1:1,2017-11-04T14:00:00Z,25.2540,-80.4440,1.5,2.51,1111122 
ENP,ioos.station.NOAA.NDBC:HCEF1:1,2017-11-04T15:00:00Z,25.2540,-80.4440,1.5,2.53,1111122 
ENP,ioos.station.NOAA.NDBC:HCEF1:1,2017-11-04T16:00:00Z,25.2540,-80.4440,1.5,2.54,1111122 
ENP,ioos.station.NOAA.NDBC:HCEF1:1,2017-11-04T17:00:00Z,25.2540,-80.4440,1.5,2.54,1111122 
ENP,ioos.station.NOAA.NDBC:HCEF1:1,2017-11-04T18:00:00Z,25.2540,-80.4440,1.5,2.42,1111122 
ENP,ioos.station.NOAA.NDBC:HCEF1:1,2017-11-04T19:00:00Z,25.2540,-80.4440,1.5,2.37,1111122 
ENP,ioos.station.NOAA.NDBC:HCEF1:1,2017-11-04T20:00:00Z,25.2540,-80.4440,1.5,2.35,1111122 
ENP,ioos.station.NOAA.NDBC:HCEF1:1,2017-11-04T21:00:00Z,25.2540,-80.4440,1.5,2.34,1111122 
ENP,ioos.station.NOAA.NDBC:HCEF1:1,2017-11-04T22:00:00Z,25.2540,-80.4440,1.5,2.36,1111122 
ENP,ioos.station.NOAA.NDBC:HCEF1:1,2017-11-04T23:00:00Z,25.2540,-80.4440,1.5,2.39,1111122 
ENP,ioos.station.NOAA.NDBC:HCEF1:1,2017-11-05T00:00:00Z,25.2540,-80.4440,1.5,2.43,1111122 
ENP,ioos.station.NOAA.NDBC:HCEF1:1,2017-11-05T02:00:00Z,25.2540,-80.4440,1.5,2.52,1111122 
ENP,ioos.station.NOAA.NDBC:HCEF1:1,2017-11-05T03:00:00Z,25.2540,-80.4440,1.5,2.59,1111122 
ENP,ioos.station.NOAA.NDBC:HCEF1:1,2017-11-05T07:00:00Z,25.2540,-80.4440,1.5,3.04,1111122 
ENP,ioos.station.NOAA.NDBC:HCEF1:1,2017-11-05T08:00:00Z,25.2540,-80.4440,1.5,3.21,1111122 
ENP,ioos.station.NOAA.NDBC:HCEF1:1,2017-11-05T09:00:00Z,25.2540,-80.4440,1.5,3.33,1111122 
ENP,ioos.station.NOAA.NDBC:HCEF1:1,2017-11-05T12:00:00Z,25.2540,-80.4440,1.5,3.38,1111122 
ENP,ioos.station.NOAA.NDBC:HCEF1:1,2017-11-05T13:00:00Z,25.2540,-80.4440,1.5,3.23,1111122 
ENP,ioos.station.NOAA.NDBC:HCEF1:1,2017-11-05T14:00:00Z,25.2540,-80.4440,1.5,3.04,1111122 
ENP,ioos.station.NOAA.NDBC:HCEF1:1,2017-11-05T15:00:00Z,25.2540,-80.4440,1.5,3.03,1111122 
ENP,ioos.station.NOAA.NDBC:HCEF1:1,2017-11-05T16:00:00Z,25.2540,-80.4440,1.5,3.05,1111122 
ENP,ioos.station.NOAA.NDBC:HCEF1:1,2017-11-05T17:00:00Z,25.2540,-80.4440,1.5,3.05,1111122 
ENP,ioos.station.NOAA.NDBC:HCEF1:1,2017-11-05T18:00:00Z,25.2540,-80.4440,1.5,3.04,1111122 
ENP,ioos.station.NOAA.NDBC:HCEF1:1,2017-11-05T19:00:00Z,25.2540,-80.4440,1.5,3.01,1111122 
ENP,ioos.station.NOAA.NDBC:HCEF1:1,2017-11-05T20:00:00Z,25.2540,-80.4440,1.5,3.01,1111122 
ENP,ioos.station.NOAA.NDBC:HCEF1:1,2017-11-05T21:00:00Z,25.2540,-80.4440,1.5,3.02,1111122 
ENP,ioos.station.NOAA.NDBC:HCEF1:1,2017-11-05T22:00:00Z,25.2540,-80.4440,1.5,3.02,1111122 
ENP,ioos.station.NOAA.NDBC:HCEF1:1,2017-11-05T23:00:00Z,25.2540,-80.4440,1.5,3.01,1111122 
ENP,ioos.station.NOAA.NDBC:HCEF1:1,2017-11-06T00:00:00Z,25.2540,-80.4440,1.5,3.01,1111122 
ENP,ioos.station.NOAA.NDBC:HCEF1:1,2017-11-06T01:00:00Z,25.2540,-80.4440,1.5,3.01,1111122 
ENP,ioos.station.NOAA.NDBC:HCEF1:1,2017-11-06T04:00:00Z,25.2540,-80.4440,1.5,3.33,1111122 
ENP,ioos.station.NOAA.NDBC:HCEF1:1,2017-11-06T06:00:00Z,25.2540,-80.4440,1.5,3.94,1111122 
ENP,ioos.station.NOAA.NDBC:HCEF1:1,2017-11-06T07:00:00Z,25.2540,-80.4440,1.5,4.05,1111122 
ENP,ioos.station.NOAA.NDBC:HCEF1:1,2017-11-06T08:00:00Z,25.2540,-80.4440,1.5,4.22,1111122 
ENP,ioos.station.NOAA.NDBC:HCEF1:1,2017-11-06T09:00:00Z,25.2540,-80.4440,1.5,4.36,1111122 
ENP,ioos.station.NOAA.NDBC:HCEF1:1,2017-11-06T11:00:00Z,25.2540,-80.4440,1.5,4.4,1111122 
ENP,ioos.station.NOAA.NDBC:HCEF1:1,2017-11-06T12:00:00Z,25.2540,-80.4440,1.5,4.6,1111122 
ENP,ioos.station.NOAA.NDBC:HCEF1:1,2017-11-06T13:00:00Z,25.2540,-80.4440,1.5,4.76,1111122 
ENP,ioos.station.NOAA.NDBC:HCEF1:1,2017-11-06T14:00:00Z,25.2540,-80.4440,1.5,4.87,1111122 
ENP,ioos.station.NOAA.NDBC:HCEF1:1,2017-11-06T15:00:00Z,25.2540,-80.4440,1.5,4.92,1111122 
ENP,ioos.station.NOAA.NDBC:HCEF1:1,2017-11-06T16:00:00Z,25.2540,-80.4440,1.5,3.94,1111122 
ENP,ioos.station.NOAA.NDBC:HCEF1:1,2017-11-06T17:00:00Z,25.2540,-80.4440,1.5,3.24,1111122 
ENP,ioos.station.NOAA.NDBC:HCEF1:1,2017-11-06T18:00:00Z,25.2540,-80.4440,1.5,3.2,1111122 
ENP,ioos.station.NOAA.NDBC:HCEF1:1,2017-11-06T19:00:00Z,25.2540,-80.4440,1.5,3.28,1111122 
ENP,ioos.station.NOAA.NDBC:HCEF1:1,2017-11-06T20:00:00Z,25.2540,-80.4440,1.5,3.28,1111122 
ENP,ioos.station.NOAA.NDBC:HCEF1:1,2017-11-06T21:00:00Z,25.2540,-80.4440,1.5,3.29,1111122 
ENP,ioos.station.NOAA.NDBC:HCEF1:1,2017-11-06T22:00:00Z,25.2540,-80.4440,1.5,3.3,1111122 
ENP,ioos.station.NOAA.NDBC:HCEF1:1,2017-11-06T23:00:00Z,25.2540,-80.4440,1.5,3.3,1111122 
ENP,ioos.station.NOAA.NDBC:HCEF1:1,2017-11-07T00:00:00Z,25.2540,-80.4440,1.5,3.24,1111122 
ENP,ioos.station.NOAA.NDBC:HCEF1:1,2017-11-07T01:00:00Z,25.2540,-80.4440,1.5,3.15,1111122 
ENP,ioos.station.NOAA.NDBC:HCEF1:1,2017-11-07T03:00:00Z,25.2540,-80.4440,1.5,3.11,1111122 
ENP,ioos.station.NOAA.NDBC:HCEF1:1,2017-11-07T04:00:00Z,25.2540,-80.4440,1.5,3.11,1111122 
ENP,ioos.station.NOAA.NDBC:HCEF1:1,2017-11-07T06:00:00Z,25.2540,-80.4440,1.5,3.11,1111122 
ENP,ioos.station.NOAA.NDBC:HCEF1:1,2017-11-07T07:00:00Z,25.2540,-80.4440,1.5,3.16,1111122 
ENP,ioos.station.NOAA.NDBC:HCEF1:1,2017-11-07T08:00:00Z,25.2540,-80.4440,1.5,4.47,1111122 
ENP,ioos.station.NOAA.NDBC:HCEF1:1,2017-11-07T09:00:00Z,25.2540,-80.4440,1.5,4.95,1111122 
ENP,ioos.station.NOAA.NDBC:HCEF1:1,2017-11-07T11:00:00Z,25.2540,-80.4440,1.5,5.25,1111122 
ENP,ioos.station.NOAA.NDBC:HCEF1:1,2017-11-07T12:00:00Z,25.2540,-80.4440,1.5,4.55,1111122 
ENP,ioos.station.NOAA.NDBC:HCEF1:1,2017-11-07T13:00:00Z,25.2540,-80.4440,1.5,4.75,1111122 
ENP,ioos.station.NOAA.NDBC:HCEF1:1,2017-11-07T14:00:00Z,25.2540,-80.4440,1.5,4.84,1111122 
ENP,ioos.station.NOAA.NDBC:HCEF1:1,2017-11-07T15:00:00Z,25.2540,-80.4440,1.5,4.8,1111122 
ENP,ioos.station.NOAA.NDBC:HCEF1:1,2017-11-07T16:00:00Z,25.2540,-80.4440,1.5,3.26,1111122 
ENP,ioos.station.NOAA.NDBC:HCEF1:1,2017-11-07T17:00:00Z,25.2540,-80.4440,1.5,3.1,1111122 
ENP,ioos.station.NOAA.NDBC:HCEF1:1,2017-11-07T18:00:00Z,25.2540,-80.4440,1.5,3.11,1111122 
ENP,ioos.station.NOAA.NDBC:HCEF1:1,2017-11-07T19:00:00Z,25.2540,-80.4440,1.5,3.13,1111122 
ENP,ioos.station.NOAA.NDBC:HCEF1:1,2017-11-07T20:00:00Z,25.2540,-80.4440,1.5,3.25,1111122 
ENP,ioos.station.NOAA.NDBC:HCEF1:1,2017-11-07T21:00:00Z,25.2540,-80.4440,1.5,3.26,1111122 
ENP,ioos.station.NOAA.NDBC:HCEF1:1,2017-11-07T22:00:00Z,25.2540,-80.4440,1.5,3.24,1111122 
ENP,ioos.station.NOAA.NDBC:HCEF1:1,2017-11-07T23:00:00Z,25.2540,-80.4440,1.5,3.19,1111122 
ENP,ioos.station.NOAA.NDBC:HCEF1:1,2017-11-08T00:00:00Z,25.2540,-80.4440,1.5,3.17,1111122 
ENP,ioos.station.NOAA.NDBC:HCEF1:1,2017-11-08T01:00:00Z,25.2540,-80.4440,1.5,3.16,1111122 
ENP,ioos.station.NOAA.NDBC:HCEF1:1,2017-11-08T04:00:00Z,25.2540,-80.4440,1.5,3.18,1111122 
ENP,ioos.station.NOAA.NDBC:HCEF1:1,2017-11-08T06:00:00Z,25.2540,-80.4440,1.5,3.54,1111122 
ENP,ioos.station.NOAA.NDBC:HCEF1:1,2017-11-08T07:00:00Z,25.2540,-80.4440,1.5,3.97,1111122 
ENP,ioos.station.NOAA.NDBC:HCEF1:1,2017-11-08T08:00:00Z,25.2540,-80.4440,1.5,4.53,1111122 
ENP,ioos.station.NOAA.NDBC:HCEF1:1,2017-11-08T09:00:00Z,25.2540,-80.4440,1.5,4.78,1111122 
ENP,ioos.station.NOAA.NDBC:HCEF1:1,2017-11-08T11:00:00Z,25.2540,-80.4440,1.5,5.01,1111122 
ENP,ioos.station.NOAA.NDBC:HCEF1:1,2017-11-08T12:00:00Z,25.2540,-80.4440,1.5,5.07,1111122 
ENP,ioos.station.NOAA.NDBC:HCEF1:1,2017-11-08T13:00:00Z,25.2540,-80.4440,1.5,5.12,1111122 
ENP,ioos.station.NOAA.NDBC:HCEF1:1,2017-11-08T14:00:00Z,25.2540,-80.4440,1.5,4.97,1111122 
ENP,ioos.station.NOAA.NDBC:HCEF1:1,2017-11-08T15:00:00Z,25.2540,-80.4440,1.5,3.77,1111122 
ENP,ioos.station.NOAA.NDBC:HCEF1:1,2017-11-08T16:00:00Z,25.2540,-80.4440,1.5,3.35,1111122 
ENP,ioos.station.NOAA.NDBC:HCEF1:1,2017-11-08T17:00:00Z,25.2540,-80.4440,1.5,3.58,1111122 
ENP,ioos.station.NOAA.NDBC:HCEF1:1,2017-11-08T18:00:00Z,25.2540,-80.4440,1.5,3.64,1111122 
ENP,ioos.station.NOAA.NDBC:HCEF1:1,2017-11-08T19:00:00Z,25.2540,-80.4440,1.5,3.69,1111122 
ENP,ioos.station.NOAA.NDBC:HCEF1:1,2017-11-08T20:00:00Z,25.2540,-80.4440,1.5,3.73,1111122 
ENP,ioos.station.NOAA.NDBC:HCEF1:1,2017-11-08T21:00:00Z,25.2540,-80.4440,1.5,3.82,1111122 
ENP,ioos.station.NOAA.NDBC:HCEF1:1,2017-11-08T22:00:00Z,25.2540,-80.4440,1.5,3.94,1111122 
ENP,ioos.station.NOAA.NDBC:HCEF1:1,2017-11-08T23:00:00Z,25.2540,-80.4440,1.5,4.04,1111122 
ENP,ioos.station.NOAA.NDBC:HCEF1:1,2017-11-09T00:00:00Z,25.2540,-80.4440,1.5,4.07,1111122 
ENP,ioos.station.NOAA.NDBC:HCEF1:1,2017-11-09T01:00:00Z,25.2540,-80.4440,1.5,4.04,1111122 
ENP,ioos.station.NOAA.NDBC:HCEF1:1,2017-11-09T03:00:00Z,25.2540,-80.4440,1.5,3.93,1111122 
ENP,ioos.station.NOAA.NDBC:HCEF1:1,2017-11-09T04:00:00Z,25.2540,-80.4440,1.5,3.95,1111122 
ENP,ioos.station.NOAA.NDBC:HCEF1:1,2017-11-09T06:00:00Z,25.2540,-80.4440,1.5,3.97,1111122 
ENP,ioos.station.NOAA.NDBC:HCEF1:1,2017-11-09T07:00:00Z,25.2540,-80.4440,1.5,4.13,1111122 
ENP,ioos.station.NOAA.NDBC:HCEF1:1,2017-11-09T08:00:00Z,25.2540,-80.4440,1.5,4.28,1111122 
ENP,ioos.station.NOAA.NDBC:HCEF1:1,2017-11-09T09:00:00Z,25.2540,-80.4440,1.5,4.61,1111122 
ENP,ioos.station.NOAA.NDBC:HCEF1:1,2017-11-09T11:00:00Z,25.2540,-80.4440,1.5,5.1,1111122 
ENP,ioos.station.NOAA.NDBC:HCEF1:1,2017-11-09T12:00:00Z,25.2540,-80.4440,1.5,5.31,1111122 
ENP,ioos.station.NOAA.NDBC:HCEF1:1,2017-11-09T13:00:00Z,25.2540,-80.4440,1.5,5.41,1111122 
ENP,ioos.station.NOAA.NDBC:HCEF1:1,2017-11-09T14:00:00Z,25.2540,-80.4440,1.5,5.46,1111122 
ENP,ioos.station.NOAA.NDBC:HCEF1:1,2017-11-09T15:00:00Z,25.2540,-80.4440,1.5,4.81,1111122 
ENP,ioos.station.NOAA.NDBC:HCEF1:1,2017-11-09T16:00:00Z,25.2540,-80.4440,1.5,4.31,1111122 
ENP,ioos.station.NOAA.NDBC:HCEF1:1,2017-11-09T17:00:00Z,25.2540,-80.4440,1.5,4.24,1111122 
ENP,ioos.station.NOAA.NDBC:HCEF1:1,2017-11-09T18:00:00Z,25.2540,-80.4440,1.5,4.27,1111122 
ENP,ioos.station.NOAA.NDBC:HCEF1:1,2017-11-09T19:00:00Z,25.2540,-80.4440,1.5,4.29,1111122 
ENP,ioos.station.NOAA.NDBC:HCEF1:1,2017-11-09T20:00:00Z,25.2540,-80.4440,1.5,4.32,1111122 
ENP,ioos.station.NOAA.NDBC:HCEF1:1,2017-11-09T21:00:00Z,25.2540,-80.4440,1.5,4.36,1111122 
ENP,ioos.station.NOAA.NDBC:HCEF1:1,2017-11-09T22:00:00Z,25.2540,-80.4440,1.5,4.39,1111122 
ENP,ioos.station.NOAA.NDBC:HCEF1:1,2017-11-09T23:00:00Z,25.2540,-80.4440,1.5,4.45,1111122 
ENP,ioos.station.NOAA.NDBC:HCEF1:1,2017-11-10T00:00:00Z,25.2540,-80.4440,1.5,4.49,1111122 
ENP,ioos.station.NOAA.NDBC:HCEF1:1,2017-11-10T01:00:00Z,25.2540,-80.4440,1.5,4.51,1111122 
ENP,ioos.station.NOAA.NDBC:HCEF1:1,2017-11-10T03:00:00Z,25.2540,-80.4440,1.5,4.57,1111122 
ENP,ioos.station.NOAA.NDBC:HCEF1:1,2017-11-10T04:00:00Z,25.2540,-80.4440,1.5,4.64,1111122 
ENP,ioos.station.NOAA.NDBC:HCEF1:1,2017-11-10T06:00:00Z,25.2540,-80.4440,1.5,4.81,1111122 
ENP,ioos.station.NOAA.NDBC:HCEF1:1,2017-11-10T07:00:00Z,25.2540,-80.4440,1.5,4.81,1111122 
ENP,ioos.station.NOAA.NDBC:HCEF1:1,2017-11-10T08:00:00Z,25.2540,-80.4440,1.5,4.62,1111122 
ENP,ioos.station.NOAA.NDBC:HCEF1:1,2017-11-10T09:00:00Z,25.2540,-80.4440,1.5,4.57,1111122 
ENP,ioos.station.NOAA.NDBC:HCEF1:1,2017-11-10T11:00:00Z,25.2540,-80.4440,1.5,4.66,1111122 
ENP,ioos.station.NOAA.NDBC:HCEF1:1,2017-11-10T12:00:00Z,25.2540,-80.4440,1.5,4.78,1111122 
ENP,ioos.station.NOAA.NDBC:HCEF1:1,2017-11-10T13:00:00Z,25.2540,-80.4440,1.5,4.88,1111122 
ENP,ioos.station.NOAA.NDBC:HCEF1:1,2017-11-10T14:00:00Z,25.2540,-80.4440,1.5,4.9,1111122 
ENP,ioos.station.NOAA.NDBC:HCEF1:1,2017-11-10T15:00:00Z,25.2540,-80.4440,1.5,4.89,1111122 
ENP,ioos.station.NOAA.NDBC:HCEF1:1,2017-11-10T16:00:00Z,25.2540,-80.4440,1.5,4.91,1111122 
ENP,ioos.station.NOAA.NDBC:HCEF1:1,2017-11-10T17:00:00Z,25.2540,-80.4440,1.5,4.96,1111122 
ENP,ioos.station.NOAA.NDBC:HCEF1:1,2017-11-10T18:00:00Z,25.2540,-80.4440,1.5,4.93,1111122 
ENP,ioos.station.NOAA.NDBC:HCEF1:1,2017-11-10T19:00:00Z,25.2540,-80.4440,1.5,4.96,1111122 
ENP,ioos.station.NOAA.NDBC:HCEF1:1,2017-11-10T20:00:00Z,25.2540,-80.4440,1.5,5.0,1111122 
ENP,ioos.station.NOAA.NDBC:HCEF1:1,2017-11-10T21:00:00Z,25.2540,-80.4440,1.5,5.06,1111122 
ENP,ioos.station.NOAA.NDBC:HCEF1:1,2017-11-10T22:00:00Z,25.2540,-80.4440,1.5,4.72,1111122 
ENP,ioos.station.NOAA.NDBC:HCEF1:1,2017-11-10T23:00:00Z,25.2540,-80.4440,1.5,4.64,1111122 
ENP,ioos.station.NOAA.NDBC:HCEF1:1,2017-11-11T00:00:00Z,25.2540,-80.4440,1.5,4.69,1111122 
ENP,ioos.station.NOAA.NDBC:HCEF1:1,2017-11-11T01:00:00Z,25.2540,-80.4440,1.5,4.8,1111122 
ENP,ioos.station.NOAA.NDBC:HCEF1:1,2017-11-11T03:00:00Z,25.2540,-80.4440,1.5,5.14,1111122 
ENP,ioos.station.NOAA.NDBC:HCEF1:1,2017-11-11T04:00:00Z,25.2540,-80.4440,1.5,5.21,1111122 
ENP,ioos.station.NOAA.NDBC:HCEF1:1,2017-11-11T06:00:00Z,25.2540,-80.4440,1.5,5.41,1111122 
ENP,ioos.station.NOAA.NDBC:HCEF1:1,2017-11-11T07:00:00Z,25.2540,-80.4440,1.5,5.49,1111122 
ENP,ioos.station.NOAA.NDBC:HCEF1:1,2017-11-11T08:00:00Z,25.2540,-80.4440,1.5,5.38,1111122 
ENP,ioos.station.NOAA.NDBC:HCEF1:1,2017-11-11T09:00:00Z,25.2540,-80.4440,1.5,5.11,1111122 
ENP,ioos.station.NOAA.NDBC:HCEF1:1,2017-11-11T11:00:00Z,25.2540,-80.4440,1.5,5.0,1111122 
ENP,ioos.station.NOAA.NDBC:HCEF1:1,2017-11-11T12:00:00Z,25.2540,-80.4440,1.5,5.08,1111122 
ENP,ioos.station.NOAA.NDBC:HCEF1:1,2017-11-11T13:00:00Z,25.2540,-80.4440,1.5,5.65,1111122 
ENP,ioos.station.NOAA.NDBC:HCEF1:1,2017-11-11T14:00:00Z,25.2540,-80.4440,1.5,6.15,1111122 
ENP,ioos.station.NOAA.NDBC:HCEF1:1,2017-11-11T15:00:00Z,25.2540,-80.4440,1.5,6.69,1111122 
ENP,ioos.station.NOAA.NDBC:HCEF1:1,2017-11-11T16:00:00Z,25.2540,-80.4440,1.5,7.01,1111122 
ENP,ioos.station.NOAA.NDBC:HCEF1:1,2017-11-11T17:00:00Z,25.2540,-80.4440,1.5,7.32,1111122 
ENP,ioos.station.NOAA.NDBC:HCEF1:1,2017-11-11T18:00:00Z,25.2540,-80.4440,1.5,7.3,1111122 
ENP,ioos.station.NOAA.NDBC:HCEF1:1,2017-11-11T19:00:00Z,25.2540,-80.4440,1.5,7.13,1111122 
ENP,ioos.station.NOAA.NDBC:HCEF1:1,2017-11-11T20:00:00Z,25.2540,-80.4440,1.5,7.29,1111122 
ENP,ioos.station.NOAA.NDBC:HCEF1:1,2017-11-11T21:00:00Z,25.2540,-80.4440,1.5,7.06,1111122 
ENP,ioos.station.NOAA.NDBC:HCEF1:1,2017-11-11T22:00:00Z,25.2540,-80.4440,1.5,7.04,1111122 
ENP,ioos.station.NOAA.NDBC:HCEF1:1,2017-11-11T23:00:00Z,25.2540,-80.4440,1.5,7.01,1111122 
ENP,ioos.station.NOAA.NDBC:HCEF1:1,2017-11-12T00:00:00Z,25.2540,-80.4440,1.5,7.19,1111122 
ENP,ioos.station.NOAA.NDBC:HCEF1:1,2017-11-12T01:00:00Z,25.2540,-80.4440,1.5,7.42,1111122 
ENP,ioos.station.NOAA.NDBC:HCEF1:1,2017-11-12T04:00:00Z,25.2540,-80.4440,1.5,7.75,1111122 
ENP,ioos.station.NOAA.NDBC:HCEF1:1,2017-11-12T07:00:00Z,25.2540,-80.4440,1.5,8.15,1111122 
ENP,ioos.station.NOAA.NDBC:HCEF1:1,2017-11-12T08:00:00Z,25.2540,-80.4440,1.5,8.22,1111122 
ENP,ioos.station.NOAA.NDBC:HCEF1:1,2017-11-12T09:00:00Z,25.2540,-80.4440,1.5,8.26,1111122 
ENP,ioos.station.NOAA.NDBC:HCEF1:1,2017-11-12T12:00:00Z,25.2540,-80.4440,1.5,8.23,1111122 
ENP,ioos.station.NOAA.NDBC:HCEF1:1,2017-11-12T13:00:00Z,25.2540,-80.4440,1.5,8.21,1111122 
ENP,ioos.station.NOAA.NDBC:HCEF1:1,2017-11-12T14:00:00Z,25.2540,-80.4440,1.5,8.24,1111122 
ENP,ioos.station.NOAA.NDBC:HCEF1:1,2017-11-12T15:00:00Z,25.2540,-80.4440,1.5,8.32,1111122 
ENP,ioos.station.NOAA.NDBC:HCEF1:1,2017-11-12T16:00:00Z,25.2540,-80.4440,1.5,8.45,1111122 
ENP,ioos.station.NOAA.NDBC:HCEF1:1,2017-11-12T17:00:00Z,25.2540,-80.4440,1.5,8.48,1111122 
ENP,ioos.station.NOAA.NDBC:HCEF1:1,2017-11-12T18:00:00Z,25.2540,-80.4440,1.5,8.74,1111122 
ENP,ioos.station.NOAA.NDBC:HCEF1:1,2017-11-12T19:00:00Z,25.2540,-80.4440,1.5,8.78,1111122 
ENP,ioos.station.NOAA.NDBC:HCEF1:1,2017-11-12T20:00:00Z,25.2540,-80.4440,1.5,8.78,1111122 
ENP,ioos.station.NOAA.NDBC:HCEF1:1,2017-11-12T21:00:00Z,25.2540,-80.4440,1.5,8.64,1111122 
ENP,ioos.station.NOAA.NDBC:HCEF1:1,2017-11-12T22:00:00Z,25.2540,-80.4440,1.5,8.27,1111122 
ENP,ioos.station.NOAA.NDBC:HCEF1:1,2017-11-12T23:00:00Z,25.2540,-80.4440,1.5,8.09,1111122 
ENP,ioos.station.NOAA.NDBC:HCEF1:1,2017-11-13T00:00:00Z,25.2540,-80.4440,1.5,8.12,1111122 
ENP,ioos.station.NOAA.NDBC:HCEF1:1,2017-11-13T01:00:00Z,25.2540,-80.4440,1.5,8.17,1111122 
ENP,ioos.station.NOAA.NDBC:HCEF1:1,2017-11-13T03:00:00Z,25.2540,-80.4440,1.5,8.73,1111122 
ENP,ioos.station.NOAA.NDBC:HCEF1:1,2017-11-13T04:00:00Z,25.2540,-80.4440,1.5,8.95,1111122 
ENP,ioos.station.NOAA.NDBC:HCEF1:1,2017-11-13T06:00:00Z,25.2540,-80.4440,1.5,9.22,1111122 
ENP,ioos.station.NOAA.NDBC:HCEF1:1,2017-11-13T07:00:00Z,25.2540,-80.4440,1.5,9.33,1111122 
ENP,ioos.station.NOAA.NDBC:HCEF1:1,2017-11-13T08:00:00Z,25.2540,-80.4440,1.5,9.4,1111122 
ENP,ioos.station.NOAA.NDBC:HCEF1:1,2017-11-13T09:00:00Z,25.2540,-80.4440,1.5,9.46,1111122 
ENP,ioos.station.NOAA.NDBC:HCEF1:1,2017-11-13T11:00:00Z,25.2540,-80.4440,1.5,9.57,1111122 
ENP,ioos.station.NOAA.NDBC:HCEF1:1,2017-11-13T12:00:00Z,25.2540,-80.4440,1.5,9.63,1111122 
ENP,ioos.station.NOAA.NDBC:HCEF1:1,2017-11-13T13:00:00Z,25.2540,-80.4440,1.5,9.55,1111122 
ENP,ioos.station.NOAA.NDBC:HCEF1:1,2017-11-13T14:00:00Z,25.2540,-80.4440,1.5,9.3,1111122 
ENP,ioos.station.NOAA.NDBC:HCEF1:1,2017-11-13T15:00:00Z,25.2540,-80.4440,1.5,9.3,1111122 
ENP,ioos.station.NOAA.NDBC:HCEF1:1,2017-11-13T16:00:00Z,25.2540,-80.4440,1.5,9.33,1111122 
ENP,ioos.station.NOAA.NDBC:HCEF1:1,2017-11-13T17:00:00Z,25.2540,-80.4440,1.5,9.36,1111122 
ENP,ioos.station.NOAA.NDBC:HCEF1:1,2017-11-13T18:00:00Z,25.2540,-80.4440,1.5,9.42,1111122 
ENP,ioos.station.NOAA.NDBC:HCEF1:1,2017-11-13T19:00:00Z,25.2540,-80.4440,1.5,9.51,1111122 
ENP,ioos.station.NOAA.NDBC:HCEF1:1,2017-11-13T20:00:00Z,25.2540,-80.4440,1.5,9.57,1111122 
ENP,ioos.station.NOAA.NDBC:HCEF1:1,2017-11-13T21:00:00Z,25.2540,-80.4440,1.5,9.68,1111122 
ENP,ioos.station.NOAA.NDBC:HCEF1:1,2017-11-13T22:00:00Z,25.2540,-80.4440,1.5,9.56,1111122 
ENP,ioos.station.NOAA.NDBC:HCEF1:1,2017-11-13T23:00:00Z,25.2540,-80.4440,1.5,9.35,1111122 
ENP,ioos.station.NOAA.NDBC:HCEF1:1,2017-11-14T00:00:00Z,25.2540,-80.4440,1.5,9.36,1111122 
ENP,ioos.station.NOAA.NDBC:HCEF1:1,2017-11-14T01:00:00Z,25.2540,-80.4440,1.5,9.37,1111122 